010  
ASUS44 KSHV 270610  
RWRSHV  
 
WEATHER ROUNDUP FOR THE FOUR STATE AREA  
NATIONAL WEATHER SERVICE SHREVEPORT LA  
100 AM CDT THU JUL 27 2017  
 
NOTE: "FAIR" INDICATES FEW OR NO CLOUDS BELOW 12000 FEET  
WITH NO SIGNIFICANT WEATHER AND/OR S TO VISIBILITY
.  
 
!LAZ001-LAZ014-TXZ097-270700  
SHREVEPORT...MONROE...TEXARKANA RADIOS  
 
CITY SKY/WX TMP DP RH WIND PRES REMARKS
 
SHREVEPORT PTCLDY 82 76 81 S7 30.03S  
MONROE CLEAR 80 73 79 S5 30.05F  
NATCHITOCHES CLEAR 77 75 95 SW5 30.05F  
TEXARKANA CLOUDY 82 74 76 S9 30.02S  

 
 
!LAZ001-LAZ014-TXZ097-270700  
OTHER LOCATIONS...  
 
CITY SKY/WX TMP DP RH WIND PRES REMARKS
 
DOWNTOWN SHV CLEAR 85 75 72 S10 30.03S  
BOSSIER CITY CLEAR 84 74 72 SW9 30.03S  
RUSTON CLEAR 79 73 81 S5 30.08F  
LITTLE ROCK PTCLDY 79 76 90 S8 30.01S  
EL DORADO CLOUDY 79 74 84 S3 30.04S  
JACKSON CLEAR 75 72 90 CALM 30.06F  
NEW ORLEANS PTCLDY 80 76 87 CALM 30.06F  
HOUSTON PTCLDY 81 74 79 S3 30.05S  
LUFKIN CLEAR 76 73 91 SE5 30.05F  
TYLER PTCLDY 82 74 76 S12 30.03S  
DAL FT WORTH CLOUDY 88 71 57 S17G24 29.97S  

 
 
!TXZ136-TXZ165-270700  
TYLER...LUFKIN RADIOS  
 
CITY SKY/WX TMP DP RH WIND PRES REMARKS
 
TYLER PTCLDY 82 74 76 S12 30.03S  
GILMER PTCLDY 82 73 74 S5 30.03S  
LONGVIEW CLEAR 81 76 84 S10 30.03S  
LUFKIN CLEAR 76 73 91 SE5 30.05F  

 
 
!TXZ136-TXZ165-270700  
OTHER LOCATIONS...  
 
CITY SKY/WX TMP DP RH WIND PRES REMARKS
 
NACOGDOCHES CLEAR 77 72 83 SE3 30.03F  
BEAUMONT CLEAR 76 74 93 CALM 30.06S  
HOUSTON PTCLDY 81 74 79 S3 30.05S  
COLLEGE STN PTCLDY 81 74 79 S9 30.05R  
AUSTIN CLEAR 79 72 79 S7 30.05S  
DAL FT WORTH CLOUDY 88 71 57 S17G24 29.97S  
TEXARKANA CLOUDY 82 74 76 S9 30.02S  
SHREVEPORT PTCLDY 82 76 81 S7 30.03S  
FORT POLK CLEAR 79 75 90 S5 30.07F  
LAKE CHARLES CLEAR 78 76 93 CALM 30.07S  

 
 
 
CLICK HERE TO GO TO PREVIOUS BULLETINS.

The Nexlab LA Page
The Nexlab TX Page
The Nexlab AR Page
The Nexlab OK Page Main Text Page